Regional Weather Roundup
Issued by NWS Green Bay, WI

Home | Current Version | Previous Version | Graphics & Text | Print | Product List | Glossary Off
Versions: 1 2 3 4 5 6 7 8 9 10 11 12 13 14 15 16 17 18 19 20 21 22 23 24 25 26 27 28 29 30 31 32 33 34 35 36 37 38 39 40 41 42 43 44 45 46 47 48 49 50

000
ASUS43 KGRB 280011
RWRGRB

NORTH-CENTRAL AND NORTHEAST WISCONSIN REGIONAL WEATHER ROUNDUP
NATIONAL WEATHER SERVICE GREEN BAY WI
700 PM CDT THU APR 27 2017

WIZ005-009-010>012-018-019-280100-
NORTH CENTRAL WISCONSIN

CITY           SKY/WX    TMP DP  RH WIND       PRES   REMARKS
IRONWOOD       CLOUDY    27  24  89 W16       29.57R
MANITOWISH WTR LGT SNOW  27  26  99 W9        29.55R
ARBOR VITAE    CLOUDY    32  28  87 W8        29.55R
EAGLE RIVER    CLOUDY    29  23  79 W12       29.54R
LAND O LAKES   LGT SNOW  29  25  86 W8        29.55R
RHINELANDER    CLOUDY    30  27  88 W13       29.56R
PHILLIPS       CLOUDY    28  25  87 W5        29.58R
ANTIGO         LGT SNOW  31  30  96 W13       29.58R
TOMAHAWK       CLOUDY    30  25  84 W5        29.59R
MERRILL        CLOUDY    31  29  92 W6        29.60R
$$

WIZ013-073-280100-
NORTHEAST WISCONSIN

CITY           SKY/WX    TMP DP  RH WIND       PRES   REMARKS
IRON MOUNTAIN  CLOUDY    33  28  81 SW9       29.54R
MARINETTE      CLOUDY    37  32  82 W6        29.61R
OCONTO         CLOUDY    38  32  77 SW9G16    29.60R
$$

WIZ017-030-035>037-045-280100-
CENTRAL WISCONSIN

CITY           SKY/WX    TMP DP  RH WIND       PRES   REMARKS
MEDFORD        CLOUDY    30  26  87 W9        29.60R
WAUSAU         CLOUDY    32  29  88 W13       29.60R
MOSINEE        CLOUDY    34  30  86 W9        29.62R
MARSHFIELD     CLOUDY    33  28  81 W13       29.61R
WISC RAPIDS    CLOUDY    37  32  82 W10       29.64R
STEVENS POINT  CLOUDY    34  30  86 W5        29.63R
WAUPACA        CLOUDY    40  34  77 W8        29.64R
SHAWANO        CLOUDY    39  33  80 W10       29.61R
CLINTONVILLE   CLOUDY    37  32  81 W10       29.61S
WAUTOMA        LGT RAIN  38  35  89 W10       29.65R
$$

WIZ038-039-048-051-280100-
FOX VALLEY

CITY           SKY/WX    TMP DP  RH WIND       PRES   REMARKS
NWS GREEN BAY  CLOUDY    42  35  76 W14       29.62R
APPLETON       CLOUDY    39  30  70 W15       29.60R
OSHKOSH        CLOUDY    41  34  76 SW5       29.63R
FOND DU LAC    LGT RAIN  41  35  79 SW7       29.65R
$$

WIZ022-050-052-280100-
EAST CENTRAL WISCONSIN

CITY           SKY/WX    TMP DP  RH WIND       PRES   REMARKS
EPHRAIM        MOCLDY    36  33  90 W9G16     29.59R
WASHINGTON ISL CLOUDY    35  33  92 W9        29.59R
STURGEON BAY   LGT RAIN  39  33  79 SW8       29.62R
MANITOWOC      CLOUDY    42  34  73 SW12      29.64R
SHEBOYGAN      LGT RAIN  42  38  85 SW8       29.65R
$$

LMZ563-521-522-541>543-280100-
LAKESHORE

STATION/POSITION TIME  TEMP    WIND        PRES    VSBY  WAVE
                       AIR SEA DIR/SP/G                  HT/PER
                 (UTC) (F)     (DEG/KT/KT) (MB)    (MI)  (FT/S)
SHEBOYGAN LKSHOR 0000   42     210/  6/  8 1004.2R
KEWAUNEE LKSHORE 2348   42     240/  9/ 15 1002.8R
NORTHPORT PIER   2340   37     240/  5/ 10 1002.4R
N MID LAKE BUOY  2350   36 37  240/ 14/ 17 1003.0R         4/ 6
CHAMBERS ISLAND  2340   37     220/  8/ 14 1002.0R
MENOMINEE LKSHOR 2348   38     240/ 10/ 13 1001.7R
$$




USA.gov is the U.S. government's official web portal to all federal, state and local government web resources and services.